Regional Weather Roundup
Issued by NWS

Home | Current Version | Previous Version | Text Only | Print | Product List | Glossary On
Versions: 1 2 3 4 5 6 7 8 9 10 11 12 13 14 15 16 17 18 19 20 21 22 23 24 25 26 27
000
ASUS42 KFFC 250603
RWRGA
WEATHER ROUNDUP FOR GEORGIA
NATIONAL WEATHER SERVICE PEACHTREE CITY GA
200 AM EDT THU AUG 25 2016

NOTE: "FAIR" INDICATES FEW OR NO CLOUDS BELOW 12,000 FEET WITH NO
SIGNIFICANT WEATHER AND/OR OBSTRUCTIONS TO VISIBILITY.

* = USE WITH CAUTION. THE STATIONS MARKED WITH AN ASTERISK MAY NOT
REPORT WEATHER SUCH AS PRECIPITATION, FOG, OR THUNDER AND ARE NOT
QUALITY CONTROLLED BY NWS.

THE REMARK "TC" DENOTES TEMPERATURE READING IN DEGREES CELSIUS.

GAZ001>058-250700-
NORTH GEORGIA

CITY           SKY/WX    TMP DP  RH WIND       PRES   REMARKS
ATLANTA        PTCLDY    74  71  91 E6        30.19F
6HR MIN TEMP:  74; 6HR MAX TEMP:  79;

ATHENS         CLEAR     70  70 100 CALM      30.19F FOG
6HR MIN TEMP:  70; 6HR MAX TEMP:  78;

CHAMBLEE       CLEAR     73  70  90 CALM      30.19F
6HR MIN TEMP:  73; 6HR MAX TEMP:  80;

PEACHTREE CITY CLEAR     71  71 100 CALM      30.19F FOG
6HR MIN TEMP:  71; 6HR MAX TEMP:  78;

ROME           CLEAR     74  71  91 CALM      30.17F
6HR MIN TEMP:  74; 6HR MAX TEMP:  83;

WEST ATLANTA   CLEAR     72  70  93 CALM      30.18F
6HR MIN TEMP:  72; 6HR MAX TEMP:  80;

GAINESVILLE    CLEAR     72  69  90 MISG      30.22F
6HR MIN TEMP:  72; 6HR MAX TEMP:  77;

CARTERSVILLE   CLEAR     72  70  93 CALM      30.18F
6HR MIN TEMP:  71; 6HR MAX TEMP:  79;



CITY           SKY/WX    TMP DP  RH WIND       PRES   REMARKS
DALTON*        CLEAR     73  72  94 CALM      30.18F
CANTON*        CLEAR     72  68  88 CALM      30.21F FOG
BLAIRSVILLE*   FOG      N/A N/A N/A MISG      30.25F VSB 3/4
$$

GAZ059>098-102>109-250700-
CENTRAL GEORGIA

CITY           SKY/WX    TMP DP  RH WIND       PRES   REMARKS
AUGUSTA-BUSH   PTCLDY    72  69  90 CALM      30.16F
6HR MIN TEMP:  72; 6HR MAX TEMP:  82;

AUGUSTA-DANIEL PTCLDY    78  68  71 SE3       30.18F
6HR MIN TEMP:  78; 6HR MAX TEMP:  84;

COLUMBUS       MOCLDY    78  70  76 E7        30.14F
6HR MIN TEMP:  77; 6HR MAX TEMP:  85;

MACON          CLEAR     75  68  78 CALM      30.17F
6HR MIN TEMP:  73; 6HR MAX TEMP:  84;

ROBINS AFB     CLEAR     74  69  84 MISG      30.16F


CITY           SKY/WX    TMP DP  RH WIND       PRES   REMARKS
LAGRANGE*      CLEAR     76  76 100 CALM      30.17S
MILLEDGEVILLE* CLEAR     77  72  83 CALM      30.18F
$$

GAZ099>101-110>166-250700-
SOUTH GEORGIA

CITY           SKY/WX    TMP DP  RH WIND       PRES   REMARKS
SAVANNAH       CLEAR     72  68  87 N3        30.16S
6HR MIN TEMP:  71; 6HR MAX TEMP:  82;

VALDOSTA       CLEAR     72  71  97 CALM      30.13F
6HR MIN TEMP:  72; 6HR MAX TEMP:  86;

ALMA           CLEAR     69  68  96 CALM      30.15F
6HR MIN TEMP:  69; 6HR MAX TEMP:  83;

ST SIMONS      CLEAR     82  65  56 E12       30.12F
6HR MIN TEMP:  81; 6HR MAX TEMP:  83;

FT STEWART     CLEAR     70  67  91 CALM      30.13F
ALBANY         CLEAR     77  69  76 E3        30.16S
HUNTER AFB     CLEAR     73  71  94 CALM      30.13S
MOODY AFB      CLEAR     73  69  88 NE5       30.13S
BRUNSWICK      CLEAR     72  72 100 CALM      30.14S


CITY           SKY/WX    TMP DP  RH WIND       PRES   REMARKS
BAINBRIDGE*    CLEAR     77  72  83 CALM      30.13F
MOULTRIE*      CLEAR     75  70  83 CALM      30.15F
VIDALIA*       CLEAR     73  72  94 CALM      30.16F
WAYCROSS*        N/A     74  73  98 CALM      30.14F
DOUGLAS*       PTCLDY    73  68  83 CALM      30.17S
$$




USA.gov is the U.S. government's official web portal to all federal, state and local government web resources and services.